Location: Hains Lake
(37.8540°N, 99.8578°W)
Time: 10:05:42
(UTC+00:00)

USA 234 - Pass Details

Date: 11 December 2019
Orbit: 1099 x 1108 km, 123.0° (Epoch: 20 January)

Event Time Altitude Azimuth Distance (km) Brightness Sun altitude
Rises 12:55:01 0° 41° (NE) 3,921 6.4 -9.7°
Reaches altitude 10° 12:58:03 10° 28° (NNE) 2,963 5.6 -9.2°
Maximum altitude 13:02:53 23° 340° (NNW) 2,166 4.5 -8.3°
Drops below altitude 10° 13:07:43 10° 291° (WNW) 2,963 4.8 -7.4°
Enters shadow 13:08:14 - 288° (WNW) 3,113 4.9 -7.3°
